Вернуться в каталог

STARLINK-3140

АктивенСвязьVLEO
NORAD 49460·PAYLOAD·🇺🇸 United States

Запущен Nov 13, 2021 с Cape Canaveral Space Force Station

Loading…

Ближайшие Пролёты (ближайшие 24 часа)

TLE

СвежийSource: CelesTrak SupGP

Эпоха: Sep 14, 2026, 13:46 UTC

1 49460C 21104BE  26257.57409722 -.00007897  00000+0 -23339-3 0  2571
2 49460  53.1588  79.0755 0001437  96.8302  75.8840 15.34386256    17

Отслеживайте STARLINK-3140 в реальном времени с AllMySat

Download on the App Store